Kuantan, Malaysia

2:36 PM +08 on December 13, 2017 (GMT +0800)
Kuantan

Weather History for WMKD - December, 2012

Change the Weather History Date:

Tuesday, December 4, 2012

  Actual Average Record
Temperature  
Mean Temperature 78 °F -  
Max Temperature 84 °F 84 °F - ()
Min Temperature 73 °F 72 °F - ()
Cooling Degree Days 14    
Growing Degree Days 28 (Base 50)    
Moisture  
Dew Point 75 °F    
Average Humidity 95    
Maximum Humidity 100    
Minimum Humidity 83    
Precipitation  
Precipitation 0.28 in 0.69 in - ()
Sea Level Pressure  
Sea Level Pressure 29.82 in    
Wind  
Wind Speed 2 mph ()    
Max Wind Speed 8 mph    
Max Gust Speed -    
Visibility 3.7 miles    
Events Fog , Rain    
T = Trace of Precipitation, MM = Missing Value Source: Averaged Metar Reports

Daily Weather History Graph

Daily Weather History Graph

Search for Another Location

Airport or City:

Trip Planner

Search our weather history database for the weather conditions in past years. The results will help you decide how hot, cold, wet, or windy it might be!

Date:

Astronomy

Dec. 04, 2012 Rise Set
Actual Time 6:59 AM +08 6:54 PM +08
Civil Twilight 6:37 AM +08 7:17 PM +08
Nautical Twilight 6:11 AM +08 7:43 PM +08
Astronomical Twilight 5:45 AM +08 8:09 PM +08
Moon 11:29 PM +08 (12/4) 11:11 AM +08 (12/4)
Length of Visible Light 12h 39m
Length of Day
11h 54m
Waning Gibbous, 74% of the Moon is Illuminated
Dec 4
Waning Gibbous
Dec 6
Last Quarter
Dec 13
New
Dec 20
First Quarter
Dec 28
Full

Hourly Weather History & Observations

Time (+08) Temp. Heat Index Dew Point Humidity Pressure Visibility Wind Dir Wind Speed Gust Speed Precip Events Conditions
12:00 AM 75.2 °F - 75.2 °F 100% 29.86 in 5.0 mi SSW 2.3 mph - N/A   Mostly Cloudy
1:00 AM 75.2 °F - 75.2 °F 100% 29.86 in 5.0 mi Calm Calm - N/A   Mostly Cloudy
2:00 AM 74 °F - 74 °F 100% 29.84 in 4 mi North 1.2 mph - -   Mist
2:00 AM 75.2 °F - 73.4 °F 94% 29.83 in 4.3 mi North 1.2 mph - N/A   Mostly Cloudy
3:00 AM 73.4 °F - 73.4 °F 100% 29.80 in 0.4 mi NNE 1.2 mph - N/A Fog Fog
4:00 AM 73.4 °F - 73.4 °F 100% 29.77 in 0.7 mi Calm Calm - N/A   Mostly Cloudy
5:00 AM 74 °F - 74 °F 99% 29.79 in 1 mi West 1.2 mph - -   Mist
5:00 AM 73.4 °F - 73.4 °F 100% 29.77 in 0.7 mi West 1.2 mph - N/A   Mostly Cloudy
6:00 AM 73.4 °F - 73.4 °F 100% 29.80 in 1.2 mi West 2.3 mph - N/A   Mostly Cloudy
7:00 AM 73.4 °F - 73.4 °F 100% 29.80 in 1.1 mi WNW 1.2 mph - N/A   Mostly Cloudy
8:00 AM 74 °F - 74 °F 99% 29.83 in 0 mi Calm Calm - - Fog Partial Fog
8:00 AM 73.4 °F - 73.4 °F 100% 29.83 in 0.5 mi Calm Calm - N/A Fog Fog
9:00 AM 75.2 °F - 75.2 °F 100% 29.86 in 1.9 mi Calm Calm - N/A   Mostly Cloudy
10:00 AM 77.0 °F - 75.2 °F 94% 29.86 in 2.5 mi NNE 2.3 mph - N/A Rain Light Rain
11:00 AM 78 °F - 76 °F 92% 29.88 in 2 mi NE 2.3 mph - - Rain Light Rain
11:00 AM 78.8 °F - 77.0 °F 94% 29.86 in 2.5 mi NE 2.3 mph - N/A Rain Light Rain
12:00 PM 78.8 °F - 77.0 °F 94% 29.86 in 4.3 mi NNW 3.5 mph - N/A Rain Light Rain
1:00 PM 82.4 °F 92.4 °F 78.8 °F 89% 29.83 in 6.2 mi North 3.5 mph - N/A Rain Light Rain
2:00 PM 83 °F - 79 °F 83% 29.81 in 6 mi NNE 2.3 mph - - Rain Light Rain
2:00 PM 82.4 °F 92.4 °F 78.8 °F 89% 29.80 in 6.2 mi NNE 2.3 mph - N/A Rain Light Rain
3:00 PM 84.2 °F 96.1 °F 78.8 °F 84% 29.77 in 6.2 mi ENE 2.3 mph - N/A   Mostly Cloudy
4:00 PM 77.0 °F - 75.2 °F 94% 29.77 in 6.2 mi NW 8.1 mph - N/A Rain Light Rain
5:00 PM 78 °F - 76 °F 90% 29.77 in 6 mi Calm Calm - - Rain Light Rain
5:00 PM 77.0 °F - 75.2 °F 94% 29.77 in 6.2 mi Calm Calm - N/A Rain Light Rain
6:00 PM 77.0 °F - 75.2 °F 94% 29.80 in 2.5 mi North 2.3 mph - N/A Rain Light Rain
7:00 PM 75.2 °F - 75.2 °F 100% 29.80 in 3.7 mi WNW 1.2 mph - N/A Rain Light Rain
8:00 PM 75 °F - 74 °F 96% 29.83 in 4 mi NNW 6.9 mph - - Rain Light Rain
8:00 PM 75.2 °F - 73.4 °F 94% 29.83 in 3.7 mi NNW 6.9 mph - N/A Rain Light Rain
9:00 PM 75.2 °F - 73.4 °F 94% 29.83 in 5.0 mi WNW 2.3 mph - N/A   Mostly Cloudy
10:00 PM 75.2 °F - 73.4 °F 94% 29.83 in 5.0 mi NE 2.3 mph - N/A   Mostly Cloudy
11:00 PM 74 °F - 74 °F 99% 29.83 in 7 mi NNE 1.2 mph - -   Mist
11:00 PM 75.2 °F - 73.4 °F 94% 29.83 in 6.2 mi NNE 1.2 mph - N/A   Mostly Cloudy